Location: Highridge
(54.0333°N, 114.1333°W)
Time: 05:59:43
(UTC+00:00)

CUBESAT XI-V - Pass Details

Date: 09 December 2023
Orbit: 660 x 681 km, 98.2° (Epoch: 01 March)

Event Time Altitude Azimuth Distance (km) Brightness Sun altitude
Rises 00:30:29 0° 5° (N) 3,060 ? -10.2°
Reaches altitude 10° 00:33:35 10° 343° (NNW) 2,136 ? -10.6°
Maximum altitude 00:36:12 15° 309° (NW) 1,806 ? -11.0°
Drops below altitude 10° 00:38:48 10° 275° (W) 2,122 ? -11.3°
Sets 00:41:53 0° 252° (WSW) 3,027 ? -11.8°
